Location: Kings Park
(40.8862°N, 73.2573°W)
Time: 10:13:56
(UTC+00:00)

GPS 2-04 Rocket1 - Pass Details

Date: 29 October 2020
Orbit: 418 x 545 km, 35.6° (Epoch: 23 November)

Event Time Altitude Azimuth Distance (km) Brightness Sun altitude
Rises 23:33:27 0° 246° (WSW) 2,620 7.5 -19.7°
Reaches altitude 10° 23:35:46 10° 237° (WSW) 1,754 6.2 -20.1°
Maximum altitude 23:39:29 35° 171° (S) 870 3.7 -20.8°
Enters shadow 23:39:45 35° 161° (SSE) 878 3.6 -20.9°
